Simultaneous Nadir Overpasses (SNOs) Predictions

Prediction of SNOs between METOP-B and TERRA Satellite Orbit:

Table of predicted SNOs for the next 14.0 days since TLE Epoch: 9/17/2016
Index Date (METOP-B) Time (METOP-B) Lat,Lon (METOP-B) SZA (METOP-B ) Date (TERRA) Time (TERRA) Lat,Lon (TERRA) SZA (TERRA ) Distance(km) Time Diff (sec)
1 09/18/2016 11:56:04 81.28, 47.74 82.60 09/18/2016 11:56:13 81.28, 47.81 82.61 1.28 9
2 09/18/2016 12:46:44 -81.28,-144.51 97.34 09/18/2016 12:45:39 -81.29,-144.34 97.35 2.99 65
3 09/21/2016 07:30:27 81.28, 114.15 83.71 09/21/2016 07:30:33 81.27, 113.99 83.69 2.90 6
4 09/21/2016 08:21:07 -81.28, -78.09 96.23 09/21/2016 08:19:59 -81.28, -78.11 96.26 0.37 68
5 09/24/2016 03:04:51 81.28,-179.47 84.83 09/24/2016 03:04:57 81.28,-179.41 84.84 1.00 6
6 09/
